Regional Weather Roundup
Issued by NWS

Home | Current Version | Previous Version | Graphics & Text | Print | Product List | Glossary On
Versions: 1 2 3 4 5 6 7 8 9 10 11 12 13 14 15 16 17 18 19 20 21 22 23 24 25 26 27 28 29 30 31 32 33 34 35 36 37 38 39 40 41 42 43 44 45 46 47 48 49 50
000
ASUS43 KLOT 231706
RWRIL

ILLINOIS REGIONAL WEATHER ROUNDUP
NATIONAL WEATHER SERVICE CHICAGO/ROMEOVILLE IL
1200 PM CDT TUE SEP 23 2014

NOTE: "FAIR" INDICATES FEW OR NO CLOUDS BELOW 12,000 FEET WITH NO
SIGNIFICANT WEATHER AND/OR OBSTRUCTIONS TO VISIBILITY.

* THESE STATIONS ARE NOT UNDER NWS QUALITY CONTROL. THEY ALSO MAY NOT
  REPORT WEATHER SUCH AS PRECIPITATION OR FOG.

ILZ001-002-007-009-015-016-024-231800-
NORTHWEST ILLINOIS

CITY           SKY/WX    TMP DP  RH WIND       PRES   REMARKS
MOLINE         SUNNY     70  47  43 S7        30.32F
STERLING*      SUNNY     72  48  43 S3        30.34S
SAVANNA*       SUNNY     68  49  49 S6        30.34S
$$

ILZ003-004-008-010-011-017-018-231800-
NORTH CENTRAL ILLINOIS

CITY           SKY/WX    TMP DP  RH WIND       PRES   REMARKS
ROCKFORD       MOSUNNY   70  48  45 SW9       30.36S
DE KALB*       SUNNY     67  46  47 CALM      30.35F
PERU*          SUNNY     70  46  41 S7        30.35F
$$

ILZ005-006-012>014-019>023-231800-
NORTHEAST ILLINOIS

CITY           SKY/WX    TMP DP  RH WIND       PRES   REMARKS
CHICAGO-OHARE  SUNNY     64  46  52 SW7       30.34S
CHICAGO-MIDWAY MOSUNNY   70  49  47 W7        30.35S
AURORA         SUNNY     68  47  46 S7        30.35F
LANSING*       SUNNY     68  48  49 W5        30.36S
JOLIET*        SUNNY     68  47  47 S6        30.36F
WAUKEGAN       SUNNY     68  49  50 VRB5      30.34R
DUPAGE AIRPORT SUNNY     70  49  47 SW7       30.34F
KANKAKEE*      SUNNY     69  49  49 CALM      30.36F
WHEELING       SUNNY     70  47  43 SW6       30.36R
MORRIS*        SUNNY     69  49  47 S3        30.35S
ROMEOVILLE*    SUNNY     67  46  45 CALM      30.35F
NORTHERLY ISL    N/A     69  45  41 S3          N/A
$$

LMZ740>746-231800-
SOUTHERN LAKE MICHIGAN

STATION/POSITION SKY/WX   TEMP    WIND        PRES    VSBY  WAVE
                          AIR SEA DIR/SP/G                  HT/PER
                          (F)     (DEG/KT/KT) (MB)    (MI)  (FT/S)
SOUTHERN BUOY              61 61  230/  8/ 10 1027.6S         2/ 4
WAUKEGAN HARBOR            67     250/  6/ 10   N/A
BURNHAM HARBOR             69     180/  2/  8   N/A
CALUMET HARBOR                    200/  5/  6   N/A
MICHIGAN CITY 6N           62 64  270/  6/  6   N/A           1
ST. JOSEPH                 61 65  220/  8/ 10   N/A           1/ 3
$$

ILZ025>027-034>036-040-047-049-050-058-095>099-231800-
WEST-CENTRAL ILLINOIS

CITY           SKY/WX    TMP DP  RH WIND       PRES   REMARKS
QUINCY         SUNNY     69  47  45 S9        30.32F
GALESBURG*     SUNNY    N/A N/A N/A S7        30.34S
MACOMB*        SUNNY     71  43  35 S5        30.34F
JACKSONVILLE*    N/A     73  47  39 S3        30.34F
PITTSFIELD*      N/A     73  47  40 S5        30.33F HAZE
$$

ILZ028>032-037-038-041>044-048-051>054-059>061-231800-
CENTRAL ILLINOIS

CITY           SKY/WX    TMP DP  RH WIND       PRES   REMARKS
PONTIAC        SUNNY     72  46  40 S5        30.35S
BLOOMINGTON    SUNNY     69  48  46 S5        30.36F
DECATUR        SUNNY    N/A N/A N/A SE3       30.35F
PEORIA         SUNNY     69  47  45 SE5       30.35S
LACON*         SUNNY     69  49  50 S5        30.34S
LINCOLN*       SUNNY     73  45  37 E5        30.32S
SPRINGFIELD    SUNNY     70  48  45 S6        30.34F
TAYLORVILLE    SUNNY     68  46  45 E6        30.34F
$$

ILZ033-039-045-046-055>057-062-063-231800-
EAST-CENTRAL ILLINOIS

CITY           SKY/WX    TMP DP  RH WIND       PRES   REMARKS
CHAMPAIGN      SUNNY     70  47  43 VRB3      30.36S
DANVILLE*      SUNNY     69  46  43 NE5       30.33F
RANTOUL*       SUNNY     70  41  34 SE6       30.36F
MATTOON        SUNNY     67  48  50 E9        30.35S
PARIS*         SUNNY     69  48  47 E6        30.36S
$$

ILZ079-100>102-231800-
SOUTHWEST ILLINOIS

CITY           SKY/WX    TMP DP  RH WIND       PRES   REMARKS
ALTON          MOSUNNY   68  45  42 SE7       30.34S
BELLEVILLE     SUNNY     70  50  48 NE7       30.33S
CAHOKIA*       SUNNY     71  47  42 E9        30.33S
SPARTA*        SUNNY     69  47  44 E7        30.34S
$$

ILZ064>066-069>071-074>076-080>082-084>086-088>090-092>094-231800-
SOUTH-CENTRAL ILLINOIS

CITY           SKY/WX    TMP DP  RH WIND       PRES   REMARKS
CARBONDALE     SUNNY     69  48  47 VRB3      30.33F
CAIRO*         SUNNY     72  49  45 NE8       30.30F
EFFINGHAM*     SUNNY     68  43  39 S3        30.35F
MARION         MOSUNNY   70  48  46 NE6       30.33F
MT. VERNON     SUNNY     70  48  46 E7        30.34F
CENTRALIA*     SUNNY     69  45  41 E9        30.34S
SALEM*         SUNNY     69  50  51 E3        30.34F
METROPOLIS*    SUNNY     71  49  46 E5        30.30F
$$

ILZ067-068-072-073-078-083-087-091-231800-
SOUTHEAST ILLINOIS

CITY           SKY/WX    TMP DP  RH WIND       PRES   REMARKS
LAWRENCEVILLE  SUNNY     69  47  45 E8        30.35S
FAIRFIELD*     SUNNY    N/A N/A N/A E7        30.33F
HARRISBURG*    SUNNY     69  45  42 CALM      30.33F
ROBINSON*      SUNNY     70  49  46 E6        30.36F HAZE
CARMI*         SUNNY     72  47  40 E5        30.32F
$$

ABBREVIATIONS USED IN REMARKS
   TC - TEMPERATURE IN CELSIUS
  WCI - WIND CHILL INDEX
   HX - HEAT INDEX
  VSB - VISIBILITY
$$



USA.gov is the U.S. government's official web portal to all federal, state and local government web resources and services.